Lampasas, TX

3:49 PM CDT on August 19, 2017 (GMT -0500)
Lampasas

Weather History for KLZZ - September, 2013

Change the Weather History Date:

Friday, September 27, 2013

  Actual Average (KGRK) Record (KGRK)
Temperature  
Mean Temperature 79 °F -  
Max Temperature 88 °F 83 °F 98 °F (2005)
Min Temperature 70 °F 62 °F 50 °F (2000)
Cooling Degree Days 14    
Growing Degree Days 29 (Base 50)    
Moisture  
Dew Point 73 °F    
Average Humidity 85    
Maximum Humidity 95    
Minimum Humidity 65    
Precipitation  
Precipitation 0.22 in - - ()
Sea Level Pressure  
Sea Level Pressure 29.89 in    
Wind  
Wind Speed 6 mph (SSE)    
Max Wind Speed 12 mph    
Max Gust Speed 18 mph    
Visibility 10 miles    
Events Rain , Thunderstorm    
Averages and records for this station are not official NWS values.
T = Trace of Precipitation, MM = Missing Value Source: NWS Daily Summary

Daily Weather History Graph

Daily Weather History Graph

Search for Another Location

Airport or City:

Trip Planner

Search our weather history database for the weather conditions in past years. The results will help you decide how hot, cold, wet, or windy it might be!

Date:

Astronomy

Sep. 27, 2013 Rise Set
Actual Time 7:24 AM CDT 7:22 PM CDT
Civil Twilight 7:00 AM CDT 7:46 PM CDT
Nautical Twilight 6:31 AM CDT 8:14 PM CDT
Astronomical Twilight 6:03 AM CDT 8:43 PM CDT
Moon 12:42 AM CDT (9/27) 2:41 PM CDT (9/27)
Length of Visible Light 12h 46m
Length of Day
11h 58m
Last Quarter, 45% of the Moon is Illuminated
Sep 27
Last Quarter
Oct 4
New
Oct 11
First Quarter
Oct 18
Full
Oct 26
Last Quarter

Hourly Weather History & Observations

Time (CDT) Temp. Heat Index Dew Point Humidity Pressure Visibility Wind Dir Wind Speed Gust Speed Precip Events Conditions
12:15 AM 75.6 °F - 68.5 °F 79% 29.89 in 10.0 mi SSE 6.9 mph - N/A   Scattered Clouds
12:35 AM 75.6 °F - 69.4 °F 81% 29.89 in 10.0 mi SSE 5.8 mph - N/A   Clear
12:55 AM 75.6 °F - 70.5 °F 84% 29.89 in 10.0 mi SSE 6.9 mph - N/A   Clear
1:15 AM 75.6 °F - 71.6 °F 87% 29.90 in 10.0 mi SSE 4.6 mph - N/A   Clear
1:35 AM 75.6 °F - 71.8 °F 88% 29.90 in 10.0 mi SSE 8.1 mph - N/A   Clear
1:55 AM 75.6 °F - 71.6 °F 87% 29.89 in 10.0 mi SSE 10.4 mph 16.1 mph N/A   Clear
2:15 AM 75.6 °F - 71.6 °F 87% 29.90 in 10.0 mi SSE 10.4 mph - N/A   Mostly Cloudy
2:35 AM 75.9 °F - 71.6 °F 86% 29.90 in 10.0 mi SSE 5.8 mph - N/A   Overcast
2:55 AM 75.6 °F - 71.6 °F 87% 29.90 in 10.0 mi SSE 8.1 mph - N/A   Mostly Cloudy
3:15 AM 75.6 °F - 71.8 °F 88% 29.89 in 10.0 mi SSE 4.6 mph - N/A   Overcast
3:35 AM 75.6 °F - 71.6 °F 87% 29.89 in 10.0 mi SSE 6.9 mph - N/A   Overcast
3:55 AM 75.6 °F - 71.8 °F 88% 29.89 in 10.0 mi SSE 4.6 mph - N/A   Scattered Clouds
4:15 AM 75.6 °F - 72.1 °F 89% 29.89 in 10.0 mi SSE 5.8 mph - N/A   Clear
4:35 AM 75.6 °F - 72.5 °F 90% 29.89 in 10.0 mi SSE 3.5 mph - N/A   Clear
4:55 AM 75.6 °F - 72.5 °F 90% 29.89 in 10.0 mi SSE 4.6 mph - N/A   Clear
5:15 AM 75.2 °F - 72.1 °F 90% 29.89 in 10.0 mi SSE 4.6 mph - N/A   Clear
5:35 AM 73.0 °F - 70.3 °F 91% 29.89 in 10.0 mi SSE 3.5 mph - N/A   Clear
5:55 AM 73.0 °F - 70.3 °F 91% 29.89 in 10.0 mi Calm Calm - N/A   Clear
6:15 AM 72.3 °F - 70.0 °F 92% 29.90 in 10.0 mi Calm Calm - N/A   Scattered Clouds
6:35 AM 71.8 °F - 69.8 °F 93% 29.91 in 10.0 mi Calm Calm - N/A   Scattered Clouds
6:55 AM 71.8 °F - 69.8 °F 93% 29.90 in 10.0 mi Calm Calm - N/A   Scattered Clouds
7:15 AM 70.7 °F - 68.9 °F 94% 29.91 in 7.0 mi ESE 3.5 mph - N/A   Scattered Clouds
7:35 AM 70.7 °F - 68.9 °F 94% 29.91 in 7.0 mi ESE 3.5 mph - N/A   Clear
7:55 AM 70.7 °F - 69.1 °F 95% 29.92 in 5.0 mi Calm Calm - N/A   Scattered Clouds
8:15 AM 71.8 °F - 70.3 °F 95% 29.92 in 5.0 mi Calm Calm - N/A   Mostly Cloudy
8:35 AM 71.8 °F - 70.2 °F 95% 29.93 in 7.0 mi ESE 3.5 mph - N/A   Overcast
8:55 AM 73.0 °F - 71.6 °F 95% 29.93 in 7.0 mi ESE 4.6 mph - N/A   Overcast
9:15 AM 75.6 °F - 73.4 °F 93% 29.93 in 10.0 mi ESE 6.9 mph - N/A   Overcast
9:35 AM 75.6 °F - 73.4 °F 93% 29.94 in 10.0 mi ESE 5.8 mph - N/A   Overcast
9:55 AM 75.6 °F - 72.5 °F 90% 29.94 in 10.0 mi SSE 8.1 mph - N/A   Overcast
10:15 AM 76.8 °F - 73.2 °F 89% 29.94 in 10.0 mi South 6.9 mph - N/A   Overcast
10:35 AM 78.1 °F - 73.8 °F 86% 29.94 in 10.0 mi SSE 11.5 mph - N/A   Overcast
10:55 AM 78.1 °F - 73.4 °F 85% 29.94 in 10.0 mi SSE 9.2 mph - N/A   Overcast
11:15 AM 78.8 °F - 72.1 °F 80% 29.94 in 10.0 mi SSE 8.1 mph - N/A   Overcast
11:35 AM 80.4 °F 85.0 °F 73.4 °F 79% 29.94 in 10.0 mi SSE 10.4 mph 17.3 mph N/A   Overcast
11:55 AM 80.6 °F 85.5 °F 73.8 °F 80% 29.94 in 10.0 mi SE 9.2 mph - N/A   Overcast
12:15 PM 80.6 °F 85.4 °F 73.4 °F 79% 29.94 in 10.0 mi SSE 8.1 mph - N/A   Overcast
12:35 PM 80.6 °F 85.0 °F 72.7 °F 77% 29.92 in 10.0 mi SE 9.2 mph - N/A   Overcast
12:55 PM 82.0 °F 87.2 °F 72.5 °F 73% 29.92 in 10.0 mi SSE 10.4 mph - N/A   Overcast
1:15 PM 82.0 °F 87.0 °F 72.3 °F 72% 29.92 in 10.0 mi South 10.4 mph - N/A   Overcast
1:35 PM 81.9 °F 86.6 °F 72.1 °F 72% 29.91 in 10.0 mi South 9.2 mph - N/A   Overcast
1:55 PM 83.3 °F 88.4 °F 72.0 °F 68% 29.90 in 10.0 mi SSE 8.1 mph - N/A   Overcast
2:15 PM 83.3 °F 88.7 °F 72.1 °F 69% 29.89 in 10.0 mi SSE 6.9 mph - N/A   Overcast
2:35 PM 83.3 °F 89.0 °F 72.7 °F 70% 29.88 in 10.0 mi SSE 6.9 mph - N/A   Overcast
2:55 PM 83.3 °F 89.0 °F 72.7 °F 70% 29.87 in 10.0 mi SE 5.8 mph - N/A   Overcast
3:15 PM 83.7 °F 89.7 °F 72.9 °F 70% 29.87 in 10.0 mi SSE 6.9 mph - N/A   Overcast
3:35 PM 83.3 °F 89.3 °F 72.9 °F 71% 29.86 in 10.0 mi SE 9.2 mph - N/A   Overcast
3:55 PM 84.4 °F 91.0 °F 73.0 °F 69% 29.86 in 10.0 mi SSE 9.2 mph - N/A   Overcast
4:15 PM 88.2 °F 98.0 °F 75.2 °F 65% 29.86 in 10.0 mi SSE 11.5 mph - N/A   Mostly Cloudy
4:35 PM 84.7 °F 91.4 °F 73.0 °F 68% 29.85 in 10.0 mi SE 10.4 mph - N/A   Overcast
4:55 PM 84.4 °F 91.0 °F 73.0 °F 69% 29.86 in 10.0 mi ESE 9.2 mph - N/A Thunderstorm Overcast
5:15 PM 83.8 °F 91.4 °F 74.7 °F 74% 29.87 in 4.0 mi SSE 6.9 mph - 0.01 in Rain , Thunderstorm Heavy Thunderstorms and Rain
5:35 PM 80.6 °F 87.1 °F 77.0 °F 89% 29.87 in 4.0 mi SSE 8.1 mph - 0.19 in Rain Rain
5:55 PM 80.6 °F 87.3 °F 77.4 °F 90% 29.86 in 10.0 mi SE 5.8 mph - 0.20 in   Scattered Clouds
6:15 PM 78.4 °F - 75.2 °F 90% 29.86 in 7.0 mi Calm Calm - 0.02 in Rain Rain
6:35 PM 80.6 °F 87.1 °F 77.2 °F 89% 29.86 in 10.0 mi South 3.5 mph - 0.02 in   Scattered Clouds
6:55 PM 80.6 °F 87.1 °F 77.0 °F 89% 29.85 in 10.0 mi ESE 4.6 mph - 0.02 in   Clear
7:15 PM 78.6 °F - 75.4 °F 90% 29.85 in 10.0 mi ESE 5.8 mph - N/A   Clear
7:35 PM 78.3 °F - 74.8 °F 89% 29.85 in 10.0 mi SE 6.9 mph - N/A   Clear
7:55 PM 78.1 °F - 75.2 °F 91% 29.85 in 10.0 mi SE 6.9 mph - N/A   Clear
8:15 PM 78.1 °F - 75.2 °F 91% 29.85 in 10.0 mi SE 5.8 mph - N/A   Clear
8:35 PM 78.1 °F - 75.2 °F 91% 29.86 in 10.0 mi SSE 5.8 mph - N/A   Clear
8:55 PM 78.1 °F - 74.8 °F 90% 29.87 in 10.0 mi SSE 4.6 mph - N/A   Clear
9:15 PM 78.1 °F - 75.2 °F 91% 29.87 in 10.0 mi SSE 3.5 mph - N/A   Clear
9:35 PM 78.1 °F - 75.2 °F 91% 29.87 in 10.0 mi SE 6.9 mph - N/A   Clear
9:55 PM 78.1 °F - 75.2 °F 91% 29.88 in 10.0 mi SE 6.9 mph - N/A   Clear
10:15 PM 78.1 °F - 75.2 °F 91% 29.88 in 10.0 mi SE 6.9 mph - N/A   Clear
10:35 PM 78.1 °F - 75.2 °F 91% 29.88 in 10.0 mi SSE 5.8 mph - N/A   Clear
10:55 PM 78.1 °F - 75.2 °F 91% 29.89 in 10.0 mi SSE 6.9 mph - N/A   Clear
11:15 PM 78.1 °F - 75.2 °F 91% 29.90 in 10.0 mi SSE 8.1 mph - N/A   Scattered Clouds
11:35 PM 78.1 °F - 74.8 °F 90% 29.89 in 10.0 mi SSE 9.2 mph - N/A   Mostly Cloudy
11:55 PM 78.1 °F - 75.0 °F 90% 29.89 in 10.0 mi SSE 9.2 mph 18.4 mph N/A   Mostly Cloudy